Voltar ao catálogo

DMSP 5D-2 F13 DEB

AtivoSSO
NORAD 40409·DEBRIS·🇺🇸 United States

Lançado Mar 24, 1995 de Vandenberg Space Force Base

Loading…

Próximas Passagens (próximas 24 horas)

TLE

AtualizadoSource: Space-Track

Época: Sep 13, 2026, 08:04 UTC

1 40409U 95015W   26256.33667695  .00001651  00000-0  69116-3 0  9992
2 40409  98.7334 281.2745 0004424 145.5949 214.5518 14.27420475598333

Acompanhe DMSP 5D-2 F13 DEB em tempo real com AllMySat

Download on the App Store